McNabs Island, Nova Scotia

Past 24 Hour Conditions

This table is a summary of hourly weather conditions for the past 24 hours. This summary includes the following parameters: temperature, humidity, dew point, wind speed and direction, air pressure, visibility and/or wind chill and humidex.
Date / Time
(ADT)
Conditions Temp (°C) Humidity (%) Dew Point (°C) Wind (km/h) Pressure (kPa) Vis (km) Humidex
24 July 2014
1:00 N/A 17 86 15 WSW 14 100.9 N/A *
00:00 N/A 18 79 14 SW 19 100.9 N/A *
23 July 2014
23:00 N/A 18 82 15 SW 18 101.0 N/A *
22:00 N/A 18 85 15 SW 22 gust 36 101.0 N/A *
21:00 N/A 19 83 16 SW 28 gust 36 100.9 N/A *
20:00 N/A 20 81 17 WSW 20 gust 31 100.9 N/A 25
19:00 N/A 20 78 17 SW 26 gust 46 100.9 N/A 25
18:00 N/A 21 75 17 SW 28 100.9 N/A 26
17:00 N/A 22 74 17 SW 28 gust 43 100.9 N/A 27
16:00 N/A 22 74 17 SSW 28 101.0 N/A 27
15:00 N/A 23   74 18 SSW 22 gust 35 101.0 N/A 28
14:00 N/A 22 74 17 SSW 35 101.1 N/A 28
13:00 N/A 21 77 17 SSW 31 101.2 N/A 26
12:00 N/A 21 75 16 SSW 28 101.2 N/A 25
11:00 N/A 21 74 16 SSW 19 gust 33 101.3 N/A 25
10:00 N/A 19 77 15 SW 25 gust 34 101.3 N/A *
9:00 N/A 18 80 15 SW 25 101.4 N/A *
8:00 N/A 17 78 13 W 6 101.4 N/A *
7:00 N/A 15   87 13 SSW 11 101.4 N/A *
6:00 N/A 15   85 13 SW 9 101.5 N/A *
5:00 N/A 16 81 13 SW 9 101.4 N/A *
4:00 N/A 16 79 13 S 5 101.4 N/A *
3:00 N/A 17 82 14 SSW 4 101.5 N/A *
2:00 N/A 16 86 14 S 6 101.6 N/A *
1:00 N/A 17 85 14 W 5 101.6 N/A *
N/A
Not available
 ↑ 
Highest temperature
 ↓ 
Lowest temperature
*
Value not significant.

If you require additional historical weather information, please visit Climate Data Online.